Wind_Speed
17 16 16 15 15 16 17 17 16 14 14 14 14 14 13 12 11 10 10 10 12 13 13 12 12 11 10 9 8 8 9 10 10 10 9 8 7 7 7 7 8 8 7 6 6 6 7 8 8 9 9 10 11 11 12 11 8 7 7 6 7 6 5 6 9 9 7 7 9 10 11 11 11 11 12 14 15 14 13 16 18 16 13 12 11
18 17 17 16 17 17 17 18 17 15 15 15 15 15 15 13 12 11 10 10 12 13 13 12 12 11 10 9 9 9 10 11 11 10 9 8 7 7 7 8 8 8 7 7 7 7 7 8 9 9 9 10 11 11 11 10 8 7 6 5 5 5 3 5 8 9 9 8 9 10 11 11 11 12 13 14 15 13 14 16 15 12 11 11 11
14 15 16 16 16 16 16 17 17 16 15 16 16 15 14 14 13 12 11 11 12 13 12 12 12 11 11 10 10 10 11 11 10 10 9 8 8 8 8 8 8 8 7 7 8 7 7 8 9 9 9 10 10 9 9 8 6 6 6 4 4 3 3 3 6 9 10 11 11 11 12 12 11 11 13 14 15 14 13 14 13 11 10 9 9
12 12 14 15 15 15 15 15 16 16 16 15 15 15 15 14 13 12 12 11 11 11 11 12 12 11 11 11 10 10 11 11 10 10 9 9 9 9 9 8 8 7 7 6 7 7 7 7 7 8 8 8 8 7 7 6 4 4 4 3 4 4 4 4 5 7 10 11 11 11 12 12 11 12 13 13 14 14 13 13 12 11 10 9 8
11 11 12 13 13 12 12 12 12 13 14 14 15 15 14 14 13 12 12 11 11 10 11 12 11 11 11 10 11 11 11 11 11 10 10 9 9 9 8 8 8 7 7 6 6 6 6 6 6 6 6 6 6 6 5 5 5 4 4 4 5 6 6 7 7 8 9 11 12 12 12 13 12 12 14 14 14 14 13 12 12 11 10 9 8
9 10 10 10 10 9 8 9 10 10 10 11 13 14 14 13 13 12 11 11 11 10 10 11 11 10 10 10 10 10 11 11 11 10 10 9 9 8 8 8 7 7 7 6 6 5 5 5 5 5 5 5 5 5 5 6 6 6 6 6 6 6 8 10 10 10 11 11 12 12 13 14 14 13 15 15 15 15 13 12 12 11 11 10 9
9 10 8 7 11 11 9 11 13 12 10 9 9 10 12 13 12 11 11 11 10 10 10 11 11 10 9 9 10 10 10 10 10 10 10 9 9 8 7 7 6 6 6 5 5 5 5 5 4 4 4 4 4 5 5 6 6 7 6 6 6 6 8 10 11 13 13 13 13 14 14 15 15 14 15 16 15 15 14 13 12 12 12 12 11
7 8 8 9 12 14 15 16 16 16 15 13 10 9 11 12 11 10 10 10 9 9 9 10 10 9 8 8 9 9 9 9 9 10 10 9 8 7 7 6 6 5 4 4 4 4 4 4 4 3 3 3 4 4 5 5 5 6 6 6 6 7 8 9 11 14 14 13 13 14 14 15 15 15 15 16 16 15 15 14 13 13 12 12 12
8 10 11 10 11 14 17 18 17 16 16 16 14 12 11 12 11 10 9 8 8 7 8 10 9 8 7 6 8 9 8 8 9 9 9 8 7 6 6 6 5 5 5 4 4 4 4 4 3 4 4 4 4 4 5 5 5 5 5 5 6 7 8 9 11 13 14 14 14 14 15 15 16 16 16 17 17 15 15 15 14 13 12 12 11
11 11 12 11 11 12 14 17 17 17 16 15 15 14 14 13 13 11 10 8 7 7 7 8 8 8 7 6 6 7 6 7 9 11 10 8 6 6 6 6 6 6 5 5 5 4 4 4 4 5 6 6 6 6 6 6 7 7 6 6 7 8 9 9 11 12 13 14 15 15 15 15 16 16 16 17 17 16 15 15 14 13 12 11 10
12 12 12 12 11 12 12 13 15 16 17 15 14 15 16 14 11 10 10 8 7 7 6 7 7 7 8 7 6 6 6 7 10 10 10 9 7 6 6 6 6 6 6 6 6 6 6 5 5 6 7 7 8 9 9 9 9 10 10 10 10 11 11 11 12 13 14 14 15 15 15 15 16 17 17 16 17 16 15 15 15 13 13 13 11
15 14 13 11 11 11 10 12 14 15 17 17 17 17 16 13 8 6 6 6 5 5 5 6 6 6 7 8 6 6 7 8 9 9 9 8 8 7 7 7 7 7 7 7 7 7 7 7 6 7 8 9 10 10 11 13 13 13 13 13 13 14 14 15 14 14 14 15 15 15 15 16 15 16 17 16 16 17 16 16 16 15 15 15 12
17 16 13 10 10 11 11 12 13 13 14 17 17 15 14 14 11 5 3 4 3 2 4 6 8 9 9 9 8 7 7 8 9 10 9 9 8 8 7 7 8 8 8 8 8 8 7 7 7 7 8 11 12 11 11 13 15 16 17 17 17 17 18 18 18 18 17 15 16 16 16 16 16 15 16 16 16 17 17 16 16 15 15 14 10
18 17 15 13 11 12 13 13 12 11 10 12 13 12 12 16 16 10 6 4 3 2 5 7 10 11 10 9 8 8 8 8 9 9 9 9 9 9 8 7 7 8 8 8 8 8 8 8 8 9 9 10 11 11 11 11 13 16 17 17 18 18 19 19 20 20 19 17 17 17 16 15 14 13 15 16 16 16 16 15 15 15 12 9 5
20 17 17 16 14 12 12 12 12 11 11 12 12 11 10 12 13 11 6 5 5 6 8 8 8 8 8 8 7 7 8 9 8 9 9 9 10 9 9 9 9 9 8 8 8 8 9 9 9 10 10 10 11 12 12 12 13 14 15 16 15 15 16 19 20 19 18 15 14 13 12 11 10 11 14 14 12 11 11 11 10 10 9 8 6
20 18 19 18 16 15 14 13 13 12 12 12 11 10 9 9 9 8 6 6 7 7 7 6 5 5 5 6 6 5 7 7 7 8 8 8 8 7 7 8 9 10 9 9 9 9 9 9 10 10 11 11 12 14 14 14 15 16 16 16 14 13 16 21 21 20 19 16 13 12 12 12 12 13 14 13 11 10 9 9 8 8 9 10 8
21 21 20 18 17 17 17 16 15 13 13 13 11 10 10 8 8 7 6 6 6 6 5 5 4 4 4 4 5 4 4 5 5 6 6 7 7 5 5 7 8 9 10 10 9 9 9 10 10 10 10 11 13 15 16 15 15 16 16 16 14 12 16 20 20 19 19 19 18 18 17 17 17 15 16 16 15 12 10 9 9 9 10 10 9
22 24 22 20 20 21 21 19 17 15 14 13 12 11 10 10 10 9 8 7 6 6 6 6 5 5 4 4 5 4 2 2 3 3 4 5 6 5 5 7 8 8 9 9 9 8 9 11 12 10 10 12 14 15 16 14 14 15 15 16 15 12 14 18 19 19 19 18 17 17 17 16 16 16 17 17 16 14 10 9 10 10 10 11 9
19 21 20 20 22 24 24 23 22 20 18 17 15 14 13 13 13 12 10 9 8 7 7 7 6 6 5 4 5 5 3 1 1 1 2 3 3 4 6 8 9 9 8 8 8 7 8 11 12 11 10 12 15 16 14 12 14 15 14 14 15 13 14 18 20 19 18 17 15 14 14 15 16 17 17 16 16 14 9 6 9 10 10 9 7
15 15 16 17 18 20 20 21 22 21 20 19 18 17 17 17 16 15 13 13 12 11 10 9 9 9 9 8 8 8 6 5 4 2 1 0 1 2 3 5 8 7 7 7 7 7 9 9 8 8 8 10 12 13 13 12 13 14 13 12 14 14 15 18 19 17 16 14 13 13 14 16 16 15 15 14 14 12 7 5 6 6 7 7 7
13 13 14 14 15 15 15 15 16 15 15 14 14 14 15 15 15 15 14 14 15 14 12 11 11 11 11 11 10 9 7 7 7 6 5 4 3 2 2 2 4 3 3 5 6 7 8 5 3 5 8 9 9 10 11 11 12 13 13 12 12 14 14 15 16 15 13 12 13 13 13 14 13 12 12 11 11 10 7 6 5 4 3 3 4
13 14 14 14 14 13 13 13 12 11 11 10 11 11 11 11 11 11 11 13 13 13 11 9 9 10 10 10 9 7 5 5 6 6 6 6 6 6 5 2 2 1 1 3 4 5 5 3 4 7 9 9 8 9 9 11 12 14 16 15 13 13 13 12 13 15 13 13 14 14 13 13 13 12 12 11 10 9 8 7 7 6 4 3 3
11 12 13 13 13 13 13 13 12 11 11 10 10 10 10 9 9 8 7 8 9 10 8 7 6 6 7 8 8 7 6 6 6 6 5 5 5 5 5 3 2 2 1 3 3 3 2 2 6 9 10 9 9 9 9 10 12 15 17 18 15 14 13 12 13 15 14 14 15 14 14 14 13 13 12 11 11 10 9 7 7 6 5 5 5
8 9 10 11 12 12 12 12 12 11 11 11 11 11 10 10 9 9 8 7 7 7 6 5 5 5 5 5 6 6 5 5 6 7 7 6 6 6 5 5 4 4 4 3 3 3 3 5 7 9 9 9 10 10 11 11 13 14 15 18 19 15 12 12 13 13 13 13 13 13 13 13 13 13 12 12 11 10 9 8 7 6 5 4 4
7 7 8 9 9 9 10 11 11 11 10 11 11 11 11 11 10 9 8 7 7 7 6 5 5 4 4 4 4 4 4 3 4 7 8 8 8 8 7 7 7 6 5 4 5 7 9 10 11 11 11 10 10 12 13 13 13 13 13 17 19 16 13 11 11 12 12 10 8 9 9 9 9 11 13 13 12 10 8 7 6 5 5 5 4
7 7 8 8 8 8 9 9 10 10 10 10 10 10 10 10 9 9 9 8 8 7 7 6 5 5 4 4 4 5 4 4 5 7 8 9 9 9 9 9 9 9 7 7 9 10 11 12 13 13 13 13 12 12 12 12 12 12 13 16 18 17 17 16 13 11 12 11 8 7 7 8 9 10 11 11 10 8 7 7 5 4 4 3 2
6 7 7 8 9 9 9 9 9 9 9 9 9 10 10 10 10 10 9 9 8 7 7 7 6 6 5 5 5 5 4 4 6 8 10 10 10 11 11 12 12 12 10 9 9 9 12 13 13 12 11 10 9 10 11 11 11 12 14 17 18 20 22 22 19 15 12 10 9 9 10 11 11 10 8 7 7 7 6 5 4 3 2 1 3
6 7 8 8 9 9 10 10 9 10 11 11 10 10 10 10 11 11 10 9 8 7 7 7 7 6 6 5 6 5 4 5 8 10 12 12 13 13 13 13 13 13 11 11 9 10 12 13 12 11 10 9 9 11 12 12 11 11 12 14 18 21 22 22 22 20 17 15 15 16 15 14 13 10 7 6 6 6 6 4 3 2 1 2 4
7 7 8 8 9 8 9 9 9 9 11 12 13 13 11 9 9 10 10 10 8 7 6 6 6 6 6 5 6 6 5 6 7 8 9 10 11 12 12 13 13 13 13 14 13 10 8 8 8 9 9 9 10 11 13 13 13 10 9 12 17 19 21 22 23 23 23 22 23 23 21 19 17 14 11 8 6 6 6 6 4 2 2 3 5
7 8 8 8 8 8 9 9 9 9 8 9 11 13 13 11 10 9 10 10 11 10 9 8 8 7 5 4 5 6 5 6 6 6 6 7 8 9 10 11 12 12 13 14 13 9 8 8 8 8 7 7 7 7 9 10 10 9 10 13 17 18 19 22 24 25 25 25 25 24 22 21 19 17 14 11 9 8 8 7 5 3 4 5 6
8 8 9 9 9 8 9 9 9 9 8 7 7 8 9 11 11 11 11 12 12 13 12 12 12 11 8 6 6 6 6 6 6 7 7 7 8 8 9 10 11 11 12 12 10 8 8 8 8 7 7 7 6 7 7 8 8 9 9 12 14 14 15 18 21 23 24 23 24 24 23 21 20 17 14 12 11 10 9 8 6 5 6 7 7
8 8 9 9 9 9 9 9 9 9 9 8 7 6 5 6 8 9 10 11 12 13 12 12 12 12 11 10 9 8 8 8 7 8 8 8 8 8 9 9 10 10 11 10 8 8 8 8 8 8 8 9 9 10 10 9 9 9 8 10 12 13 16 19 22 24 25 25 26 25 22 21 20 18 14 11 10 9 8 8 7 7 7 6 6
8 7 7 7 8 8 9 9 9 9 9 8 8 8 7 6 5 6 6 8 10 11 11 11 11 11 11 11 10 10 9 9 9 8 8 8 8 8 7 8 10 11 10 7 7 7 8 8 8 9 9 9 10 10 10 9 9 9 9 9 11 13 17 21 23 25 27 27 26 24 22 21 20 17 13 11 9 8 8 7 7 7 7 7 6
9 8 8 7 7 8 8 8 8 9 9 9 8 8 8 8 6 6 5 5 6 7 9 10 11 11 10 9 9 9 9 9 9 8 8 8 8 8 8 8 10 12 10 7 6 8 9 9 10 10 10 10 10 10 9 9 9 9 10 10 9 10 15 22 25 27 27 26 24 23 21 20 17 14 12 10 9 8 7 7 7 7 7 7 6
9 9 9 9 8 8 8 9 8 8 8 9 9 8 8 7 7 7 6 6 6 6 7 8 10 11 11 10 8 8 8 8 9 9 9 8 8 8 8 7 7 8 9 8 8 8 9 10 11 11 11 11 11 10 10 9 8 9 10 9 8 11 19 26 28 27 26 24 23 21 19 18 16 13 10 9 9 8 7 7 7 7 7 7 6
7 7 8 8 8 8 8 8 8 8 8 8 8 8 8 8 7 7 7 7 7 6 7 7 8 9 11 11 9 9 9 10 10 11 12 11 10 8 7 7 7 7 7 8 8 8 9 9 10 11 11 11 10 10 9 9 8 8 9 9 9 15 22 26 26 25 24 21 19 18 18 18 17 13 9 8 9 9 8 7 6 6 6 6 6
6 6 7 7 8 8 8 9 10 10 9 8 8 8 8 8 8 7 7 8 8 7 8 8 8 9 10 11 11 11 11 11 11 12 13 14 12 9 7 7 7 8 8 8 9 9 9 9 10 10 11 10 10 10 9 9 8 7 9 10 10 15 21 23 24 24 21 18 17 18 18 17 16 12 9 8 9 9 8 7 6 6 5 5 7
7 8 8 7 8 8 7 8 9 10 9 8 8 8 8 8 8 8 8 9 9 8 8 9 9 10 11 12 13 12 12 10 10 10 11 11 11 10 8 8 8 8 8 9 9 9 9 10 10 11 10 9 8 8 8 9 8 7 8 9 10 14 19 22 22 19 17 16 16 16 15 13 12 11 10 8 7 7 6 6 6 6 5 6 7
9 10 11 11 11 9 8 8 7 7 8 8 8 9 8 9 9 9 9 9 9 9 10 10 10 11 11 12 13 12 11 10 10 10 10 10 10 10 9 9 9 9 8 9 9 8 9 10 11 11 9 8 7 7 6 6 6 6 6 7 11 17 21 20 18 16 15 15 14 11 10 9 8 9 9 7 6 6 6 5 6 6 5 6 6
7 7 9 10 10 9 9 8 8 8 8 8 8 8 9 9 9 9 9 9 9 10 10 10 10 11 12 12 11 11 10 10 10 10 10 9 9 10 10 10 10 10 9 9 9 9 9 11 13 13 11 9 8 8 7 5 4 4 5 7 13 19 19 16 15 16 16 14 11 9 8 8 7 7 7 6 4 5 5 5 5 5 4 4 4
5 6 6 7 7 7 8 8 9 9 8 7 7 7 8 8 8 8 8 9 9 9 9 9 9 10 12 13 12 11 10 9 9 9 9 9 9 9 9 9 9 9 9 9 9 10 11 12 13 14 14 13 11 9 7 6 4 1 3 7 12 16 14 12 15 18 17 12 9 7 7 6 6 5 4 3 3 3 4 5 5 4 4 4 4
5 5 4 4 4 5 6 7 7 8 8 8 7 7 7 7 7 7 7 8 8 8 8 8 8 9 11 14 14 12 9 9 9 9 8 9 9 9 9 9 10 10 9 8 8 10 11 12 12 13 13 14 14 12 10 10 8 3 3 6 11 16 15 14 16 18 15 10 7 6 6 6 4 2 2 3 3 4 4 4 4 4 5 5 4
5 4 4 3 3 3 4 5 5 6 7 8 8 7 6 6 6 7 7 7 7 8 8 9 8 8 10 13 15 12 10 9 10 10 9 9 10 10 10 10 10 10 10 10 10 11 12 14 14 12 11 13 15 14 12 11 10 7 5 5 9 13 15 16 17 16 12 9 8 7 6 5 3 1 2 3 4 4 4 4 4 5 5 4 4
5 4 4 4 4 3 3 3 4 5 6 7 8 7 6 6 6 6 6 5 6 7 8 9 9 9 9 11 12 11 10 9 9 9 9 9 9 10 10 11 12 12 11 12 14 15 14 15 16 15 13 13 15 16 14 13 12 11 9 9 10 12 15 16 16 14 11 9 8 5 4 3 2 2 3 4 4 4 4 4 5 5 5 4 4
6 5 5 5 4 3 2 2 3 4 5 5 5 6 6 5 5 5 5 5 5 6 7 8 9 9 10 10 10 10 10 10 10 10 10 10 11 11 12 13 14 14 13 14 16 17 15 15 15 16 15 13 13 14 15 15 15 15 15 14 14 15 16 16 15 13 11 9 6 3 2 3 3 3 4 3 3 4 5 4 4 5 4 4 4
7 6 5 5 4 3 2 2 2 2 3 3 3 4 4 5 4 4 5 5 4 4 5 6 7 8 9 10 10 10 10 10 11 11 12 13 14 14 14 14 15 15 15 16 15 15 15 14 13 13 13 13 12 13 13 14 14 14 14 14 14 13 13 12 11 9 8 6 4 2 2 3 4 5 5 3 2 3 3 2 3 3 4 4 4
7 6 6 6 5 4 3 2 2 1 1 1 2 2 3 3 3 3 3 4 4 4 4 5 5 6 7 7 8 9 10 10 10 11 11 12 13 14 15 16 16 16 16 16 15 15 14 13 13 12 12 11 11 11 11 11 11 10 10 9 9 8 8 7 6 5 5 5 4 4 4 3 4 4 4 3 3 2 2 2 3 3 4 4 4
6 6 6 6 5 5 4 3 3 2 2 1 1 1 1 2 2 2 1 2 3 4 4 4 4 5 5 6 6 7 7 8 9 9 9 10 11 12 13 14 14 14 14 14 13 14 14 13 13 13 12 12 12 11 11 10 10 9 8 6 5 4 3 3 3 3 4 5 6 5 5 4 3 3 3 3 3 2 3 3 3 3 4 4 4
5 6 5 5 6 5 4 4 4 3 3 2 2 1 1 1 1 1 1 1 1 2 3 3 3 4 4 5 5 5 5 6 6 6 7 7 8 8 9 9 10 11 11 11 11 11 12 12 12 12 12 12 11 11 10 10 9 8 8 7 5 4 3 2 2 3 3 4 5 4 4 4 5 4 4 4 4 3 3 3 3 3 4 5 5
6 6 6 6 6 6 5 5 5 4 3 3 3 2 2 1 1 0 1 1 2 1 1 2 2 2 3 3 4 4 4 4 4 4 4 4 5 6 7 7 8 9 9 9 10 10 10 10 11 11 11 11 11 10 10 9 8 8 7 7 6 5 4 3 3 1 1 2 2 2 3 4 4 3 2 2 3 3 3 2 3 4 5 5 6
6 6 6 6 6 6 6 5 5 5 4 4 4 3 3 3 2 1 1 2 2 2 1 1 1 1 2 2 2 3 3 3 4 4 3 3 3 4 5 6 7 8 8 8 9 9 9 9 10 10 9 9 8 8 7 7 6 6 6 5 5 4 3 3 2 2 1 1 1 0 1 1 2 2 2 2 2 2 3 3 3 4 6 6 6
Wind_Direction
186 188 187 183 180 180 185 188 185 180 176 175 176 177 182 181 177 173 170 168 168 168 169 168 166 163 159 157 157 155 156 159 159 154 150 146 142 141 144 142 134 127 123 120 124 126 124 126 132 136 144 146 145 149 149 148 143 125 117 118 114 114 127 133 137 140 141 149 156 158 160 163 166 164 159 159 158 154 156 159 158 158 163 166 166
188 189 189 187 184 181 183 186 184 180 175 175 176 175 177 178 175 173 172 172 173 174 174 172 170 167 163 160 157 155 153 156 159 157 152 148 144 143 145 143 133 125 122 116 116 120 120 122 129 133 139 143 145 150 152 155 158 143 132 130 125 128 140 136 139 148 154 163 168 167 170 177 177 172 169 167 167 166 163 164 169 174 175 172 175
191 192 192 191 190 185 184 185 183 178 174 175 176 174 173 174 175 174 174 175 176 178 180 178 175 171 166 163 159 156 153 152 153 153 150 145 142 140 138 136 132 126 122 114 111 114 118 122 127 130 135 139 143 150 156 163 169 161 153 152 149 155 171 163 156 158 164 173 180 178 178 185 187 179 176 175 175 176 172 174 182 182 181 181 183
191 199 199 195 191 189 188 184 180 175 173 175 175 174 173 172 174 175 175 175 176 178 180 179 178 174 169 166 162 159 155 152 150 148 146 142 138 135 134 133 132 128 122 114 111 111 115 123 130 134 139 144 148 154 162 167 174 180 175 175 188 195 202 208 196 178 173 177 186 187 180 185 192 184 178 178 181 186 184 183 188 187 188 190 186
197 200 200 197 194 192 185 177 175 175 176 178 176 174 172 171 173 175 176 176 174 174 177 178 178 177 174 170 166 162 158 155 153 149 144 141 135 134 135 134 130 127 122 118 118 117 121 129 134 143 152 158 163 169 176 182 195 212 216 217 217 213 213 219 217 204 191 182 185 189 183 184 191 185 182 182 183 191 195 191 193 194 190 191 197
199 200 201 200 184 166 152 153 164 172 175 178 178 176 172 168 170 174 175 175 174 174 176 177 177 177 176 172 166 163 160 157 155 153 148 144 139 134 134 135 132 130 127 124 124 125 130 139 144 156 168 176 183 190 196 202 214 224 228 234 228 214 214 217 214 210 207 194 187 187 185 187 189 187 189 189 188 194 197 195 198 198 193 193 197
190 195 189 167 143 142 157 167 173 174 162 154 161 170 172 168 168 172 173 172 173 175 176 175 177 179 178 173 166 160 159 157 157 157 154 149 146 141 138 141 138 134 133 131 132 132 134 144 156 168 180 189 194 202 208 213 222 226 228 237 238 226 219 218 213 209 209 202 192 191 191 191 191 191 193 194 195 199 200 199 201 200 198 200 195
175 171 158 146 148 169 187 185 187 192 184 175 167 161 164 164 161 163 167 170 173 176 174 174 176 177 175 169 163 159 158 158 158 160 160 155 151 148 147 150 151 148 148 143 142 147 148 149 159 171 188 202 202 209 217 220 229 234 230 232 237 235 228 221 214 209 208 206 201 198 195 194 194 195 195 196 201 206 206 207 209 206 201 200 198
134 130 134 147 167 184 188 184 190 199 196 190 184 170 161 158 154 152 153 160 168 170 170 172 173 174 172 165 159 158 161 163 163 165 164 160 156 154 154 161 167 169 173 171 166 170 170 168 177 193 204 212 213 220 229 233 243 250 246 242 241 240 236 230 222 214 210 210 210 205 200 199 199 197 195 198 204 209 211 214 219 214 202 196 196
115 113 119 134 155 172 178 180 185 187 183 182 181 175 167 160 159 159 152 147 155 157 159 166 168 172 179 172 158 158 166 173 173 171 168 167 168 171 170 173 180 182 186 192 193 196 200 200 208 219 225 230 235 241 243 245 250 252 252 251 248 247 244 237 231 225 219 218 219 215 210 208 204 202 202 203 207 212 213 215 220 213 197 193 195
103 108 114 126 141 157 169 172 169 171 172 172 172 170 163 151 147 155 156 153 157 159 162 171 173 179 189 186 170 167 180 188 185 182 180 179 180 188 191 187 188 191 196 202 205 210 214 217 226 236 240 241 247 253 255 254 254 253 251 249 248 248 248 246 241 236 232 229 227 223 222 223 216 210 210 207 207 212 214 214 219 214 201 201 201
90 97 106 119 130 139 154 160 158 163 168 169 171 171 163 149 131 129 147 154 159 171 180 181 182 190 200 201 194 191 197 202 201 202 204 202 199 202 205 202 200 203 208 214 217 218 219 223 231 240 243 243 246 252 256 256 255 253 252 251 250 247 246 248 247 243 242 241 238 233 232 233 226 215 214 212 208 211 217 220 222 219 213 222 227
85 88 92 104 122 132 138 143 149 159 167 169 172 173 168 167 170 175 191 181 176 209 208 193 193 200 206 210 213 215 214 215 215 214 216 220 220 219 219 217 217 216 218 222 226 228 228 231 237 242 247 252 253 252 254 256 257 256 253 252 252 248 246 245 244 243 246 248 247 243 239 238 235 225 219 217 212 213 219 220 222 224 226 236 238
85 90 88 84 95 114 124 129 134 143 154 156 160 163 160 167 181 197 214 204 198 223 214 205 206 206 205 205 207 212 218 223 223 221 219 224 230 233 233 231 229 229 229 229 233 238 240 244 249 250 252 254 253 251 251 253 258 259 255 250 249 248 246 244 242 242 243 246 250 252 248 247 245 229 214 209 209 216 225 226 226 228 226 223 198
77 84 87 81 81 92 105 115 119 127 136 137 144 155 156 164 181 191 193 187 187 195 200 205 210 208 204 197 190 203 223 230 231 230 227 227 232 236 239 240 239 238 236 234 238 243 247 251 256 257 258 255 250 252 257 259 261 262 257 249 245 242 240 240 240 240 238 240 247 249 241 233 227 216 209 205 203 208 215 216 214 208 200 197 190
65 69 78 80 84 91 97 102 104 111 123 124 125 136 140 148 162 167 162 163 168 174 178 184 193 197 194 182 170 195 225 228 230 234 231 228 231 231 237 244 243 242 241 239 242 245 245 247 252 256 260 256 251 257 269 272 266 261 257 251 242 236 238 241 240 238 236 235 234 230 224 224 227 224 212 197 189 188 182 175 176 182 195 208 211
61 64 67 68 77 88 96 98 95 95 104 108 105 108 115 123 132 135 136 139 146 150 143 144 159 160 160 162 160 181 213 209 211 226 228 228 229 222 232 245 243 242 244 243 243 245 243 244 247 252 258 258 257 263 272 273 262 254 252 247 236 230 239 241 236 232 233 235 235 236 235 236 237 228 210 196 188 183 179 183 190 197 209 218 215
62 67 66 66 74 84 92 94 91 87 90 95 97 99 104 111 114 115 117 118 122 129 127 130 141 141 142 154 147 138 158 181 181 201 220 230 230 225 242 252 247 245 248 245 243 244 245 248 252 255 257 259 260 264 269 265 251 245 244 238 230 223 228 233 229 225 226 228 229 232 229 224 220 210 201 197 189 180 183 201 201 199 213 224 218
60 63 64 67 75 82 87 90 90 89 89 92 95 94 97 106 110 107 104 105 102 103 111 117 119 116 109 112 119 109 84 64 108 164 215 240 240 236 249 257 254 254 255 249 245 245 248 257 267 272 268 260 257 261 266 258 241 239 240 234 230 225 225 229 227 222 223 222 217 213 204 195 195 192 187 187 187 180 176 193 195 200 219 223 213
57 59 59 62 68 74 79 83 86 88 90 93 95 94 97 106 112 111 110 112 109 105 104 105 104 103 98 97 103 98 81 71 73 77 74 14 277 230 243 266 272 271 268 268 267 260 255 258 265 274 279 272 261 260 264 256 241 241 244 238 232 228 226 228 225 216 212 207 195 187 181 176 176 177 174 174 178 172 156 161 180 201 222 214 207
56 59 59 59 60 62 67 71 76 78 81 85 88 90 94 100 105 106 109 112 112 109 105 101 102 104 102 99 101 97 82 72 70 69 65 56 52 71 76 319 308 310 297 297 293 279 273 272 267 283 301 304 288 269 263 256 245 246 248 249 251 245 229 217 213 206 194 182 176 170 168 167 163 160 159 159 164 162 152 149 147 147 178 187 203
57 61 64 65 62 59 60 63 65 64 63 69 76 80 83 87 89 94 100 101 101 101 102 101 99 99 96 90 88 86 76 65 63 63 63 59 56 64 68 41 359 25 318 278 275 274 281 290 286 296 313 320 309 293 276 259 248 244 242 246 261 260 235 205 195 196 189 182 181 176 172 171 165 160 159 155 152 150 143 142 148 150 155 157 168
50 54 60 64 63 61 63 66 69 66 61 60 65 68 69 69 71 76 86 94 97 97 101 107 107 102 98 91 87 89 85 67 51 46 49 46 43 52 59 47 31 27 318 280 277 285 303 299 290 299 310 312 305 302 294 273 260 252 243 241 249 254 239 211 194 195 195 191 188 183 178 176 170 164 161 155 147 142 133 132 142 150 167 182 178
48 49 50 53 54 57 62 65 67 68 66 60 57 57 59 60 60 60 61 71 83 85 87 98 106 106 102 95 91 93 91 69 42 35 36 32 25 23 15 1 353 346 331 318 315 318 311 296 293 298 303 303 297 293 290 280 271 264 252 242 241 242 234 216 199 197 199 196 192 188 181 177 172 165 159 149 142 139 134 129 131 131 137 153 152
51 52 51 51 51 54 59 59 58 57 56 56 54 52 52 53 53 53 53 55 60 63 63 67 73 77 77 72 65 63 65 61 39 26 22 23 20 16 11 3 355 350 341 315 298 297 295 293 294 295 295 297 296 291 287 282 276 271 261 248 239 228 215 207 198 190 183 176 181 186 178 170 163 153 147 144 140 138 136 132 129 130 128 124 124
54 54 55 57 56 57 60 60 58 56 53 54 54 51 50 51 49 48 50 49 49 49 46 45 47 48 45 36 27 23 23 29 29 17 9 9 5 0 359 358 355 352 345 325 313 309 305 302 300 297 293 292 291 288 285 284 280 273 263 252 240 224 212 208 198 180 169 165 171 172 158 149 144 138 139 142 140 135 135 134 131 129 128 135 164
58 59 62 63 61 61 64 63 63 62 58 56 58 55 52 54 53 49 45 41 42 44 43 40 36 32 28 20 11 8 10 16 14 4 358 357 352 349 349 346 346 348 345 337 327 315 311 310 306 301 300 295 282 273 275 279 274 263 253 244 232 219 213 208 197 183 176 174 171 159 147 143 142 137 135 135 125 118 121 123 124 124 128 192 236
67 71 71 70 68 66 67 68 69 69 64 59 57 54 52 54 55 52 46 39 36 35 33 33 28 17 11 8 359 356 8 19 9 358 354 351 346 344 344 341 339 338 332 326 320 307 306 310 305 296 295 289 276 274 280 280 269 255 244 233 223 215 212 205 194 188 186 178 166 157 150 144 138 131 128 125 116 114 120 120 120 128 157 251 253
77 77 76 76 75 73 72 71 73 77 76 70 66 65 68 73 71 64 58 56 56 50 38 31 22 6 355 356 356 350 351 358 355 349 348 345 338 337 336 331 327 323 317 317 318 305 289 285 280 275 276 276 276 279 281 277 267 253 236 225 219 212 205 197 187 181 180 177 171 164 156 153 152 149 147 146 142 145 153 152 151 168 216 247 252
80 77 77 75 74 76 78 75 74 78 83 81 77 75 76 82 88 86 76 66 64 64 61 54 44 32 15 359 351 345 336 334 335 339 341 337 333 331 326 319 316 312 310 314 315 298 268 258 258 258 263 267 271 274 273 267 257 242 227 221 217 209 202 196 187 181 181 180 177 171 165 164 164 160 156 157 162 171 176 172 167 189 221 236 248
79 77 76 70 63 68 74 73 70 72 73 75 82 86 83 78 76 74 74 69 63 59 58 54 49 46 42 30 4 346 337 335 336 340 343 340 337 334 328 321 318 315 313 314 309 290 272 270 271 271 274 277 280 281 280 270 254 237 221 214 213 209 202 194 188 185 183 179 174 170 168 168 167 162 159 164 171 176 182 182 188 214 229 235 245
78 79 78 70 61 62 67 67 64 64 62 60 60 64 76 81 70 58 59 66 67 61 55 49 42 35 31 28 17 1 353 352 351 349 348 349 350 346 341 335 330 325 321 316 304 288 280 280 281 280 280 282 285 284 280 275 266 252 228 208 205 204 199 196 194 189 182 174 170 169 170 170 167 163 160 165 172 178 186 194 205 219 228 233 242
70 73 76 71 65 63 62 59 59 58 55 53 51 46 47 55 55 46 44 52 58 55 47 42 38 30 22 17 10 1 357 357 357 357 359 3 2 359 359 1 359 355 346 325 302 297 295 291 290 289 286 289 293 291 285 277 268 260 245 222 207 200 197 197 195 187 178 173 171 170 171 171 170 168 166 168 175 186 196 206 214 219 226 233 236
66 70 71 65 61 61 57 53 54 54 50 49 49 47 45 43 40 39 37 35 37 36 30 24 21 21 23 18 5 358 359 359 0 3 7 9 11 14 17 13 7 5 359 338 313 310 309 302 299 295 291 292 294 291 284 276 268 263 255 236 215 202 194 188 183 177 174 174 173 171 170 171 170 170 170 173 182 195 203 210 217 222 229 236 235
74 74 68 60 56 56 52 48 48 49 48 48 46 44 44 42 37 34 32 26 18 15 20 14 2 2 16 23 16 12 13 11 13 16 14 13 22 28 19 1 351 354 349 335 324 323 317 310 305 300 295 294 290 282 276 274 270 261 248 230 208 193 186 180 176 174 173 171 169 169 173 175 174 170 169 178 190 201 208 212 217 222 229 234 236
87 79 65 58 58 57 54 52 52 51 50 48 48 47 44 41 40 35 29 25 17 10 17 17 2 359 10 15 17 28 34 30 32 34 30 28 34 30 10 350 347 351 346 338 337 335 327 320 314 308 304 300 293 282 272 268 264 255 244 228 198 184 182 179 176 174 171 170 172 177 181 183 178 172 173 189 201 208 215 218 217 218 223 232 240
89 81 67 61 62 61 60 58 57 57 54 48 45 47 44 41 41 38 32 30 24 16 18 20 13 10 10 5 8 22 26 22 27 31 28 28 31 25 9 0 358 356 352 350 349 343 336 334 330 322 313 303 293 286 277 271 265 249 236 227 204 186 182 180 177 174 172 175 182 184 182 180 179 179 186 199 207 212 217 218 215 211 216 237 249
83 81 79 75 69 65 65 62 56 54 54 50 46 44 41 38 38 38 36 34 28 23 24 21 16 17 10 357 358 11 15 11 15 20 19 22 26 21 15 11 5 359 358 359 357 353 349 350 348 340 330 320 312 305 294 284 276 252 232 228 213 193 183 175 171 171 175 180 181 179 178 181 188 195 201 207 212 215 217 215 211 205 208 229 246
91 88 84 80 73 66 65 66 62 57 55 54 50 46 41 39 38 37 36 35 30 26 25 22 20 21 9 352 352 7 15 14 15 15 13 17 20 17 14 11 7 6 4 2 3 5 2 1 1 356 350 345 341 335 321 302 281 252 230 211 188 178 173 168 165 169 175 176 174 174 182 190 196 200 205 213 219 218 215 214 214 217 228 240 250
111 101 88 80 75 70 65 63 64 63 60 57 55 51 45 41 41 38 36 34 32 29 25 25 25 19 8 3 10 16 13 13 17 15 14 17 17 14 14 11 9 9 7 4 8 13 12 14 17 15 12 10 2 353 346 336 307 254 218 191 175 170 168 167 171 176 176 174 171 175 185 191 192 197 207 220 225 215 211 213 213 221 244 265 271
131 120 103 91 86 78 69 64 64 64 60 55 54 54 51 45 42 41 39 36 33 31 28 29 32 24 17 28 42 38 20 17 22 20 19 21 17 14 15 13 10 9 8 8 13 15 17 23 28 27 28 32 31 24 16 6 350 252 177 172 176 177 173 172 178 181 179 172 166 169 175 176 178 189 210 235 245 231 223 223 221 222 235 254 270
154 149 134 114 100 84 69 65 68 66 59 54 52 53 55 52 46 45 45 40 36 36 33 31 35 30 24 33 45 46 36 32 34 31 28 27 24 22 21 20 20 20 17 17 19 17 19 30 35 32 31 36 40 40 35 26 21 40 117 154 177 183 182 178 179 181 177 169 169 177 177 171 173 194 256 266 255 245 236 230 230 238 246 252 267
168 171 168 150 124 104 84 73 70 63 58 60 60 56 56 58 53 50 50 45 40 41 41 38 38 34 25 29 40 47 47 44 43 43 42 40 39 37 33 31 34 34 29 32 39 37 34 39 43 39 35 41 47 51 52 48 45 54 86 134 166 177 177 174 174 173 170 168 176 184 185 183 194 248 280 264 253 248 243 236 235 242 248 251 261
188 180 171 165 151 127 106 87 76 73 73 75 70 60 57 62 59 52 51 51 48 47 46 44 44 42 35 35 40 44 42 39 39 41 43 44 43 42 41 44 48 47 45 52 61 60 54 53 56 56 53 52 53 56 61 68 72 77 91 114 136 147 151 154 157 158 159 161 164 170 186 207 228 253 254 248 247 241 229 225 236 248 256 260 266
202 192 177 178 180 159 134 115 99 96 92 82 67 56 54 60 60 54 51 52 53 52 49 47 47 47 47 47 43 38 36 40 43 44 47 51 53 51 49 50 53 56 60 67 72 73 71 69 70 70 67 64 61 59 63 73 82 88 95 106 116 121 126 133 140 145 152 156 154 157 206 218 222 240 241 233 232 236 231 227 234 246 259 270 278
206 202 193 197 206 197 178 166 143 120 97 72 58 52 52 56 59 60 57 53 52 54 52 49 47 48 50 52 48 42 41 46 49 49 52 58 63 66 67 65 65 69 72 73 73 73 73 73 73 73 72 71 69 67 68 74 81 87 95 102 107 111 116 125 133 142 155 165 165 175 215 215 219 232 234 222 223 240 249 257 253 250 259 271 278
203 204 204 207 209 207 207 205 188 163 131 90 64 52 50 51 54 65 70 63 58 56 52 49 49 49 51 54 54 51 51 52 53 53 53 56 62 70 76 76 74 73 72 71 70 69 69 68 68 68 68 68 69 70 71 74 78 84 91 97 103 111 120 131 144 160 185 203 204 202 208 217 225 230 227 226 233 233 227 239 252 259 270 276 274
200 203 210 216 218 222 225 215 199 195 201 193 128 75 64 49 47 65 92 81 65 57 51 50 53 52 50 53 56 58 59 60 60 58 54 52 54 62 70 74 75 72 68 66 66 66 68 69 70 71 71 71 71 72 72 73 75 78 81 84 90 98 111 142 177 194 209 218 218 216 218 226 234 227 212 215 228 229 231 246 257 264 272 274 271
212 213 217 225 231 236 236 226 218 218 219 219 217 193 147 39 31 57 106 117 92 70 55 53 56 56 55 57 59 63 66 65 63 62 58 52 52 56 61 69 76 77 73 69 67 67 68 69 71 73 75 75 75 75 76 77 78 79 79 80 83 87 94 122 177 200 209 214 217 221 228 231 232 231 225 220 218 221 242 277 288 283 279 278 274
227 227 231 236 238 239 239 239 243 243 234 230 234 229 217 226 249 112 129 157 165 151 89 64 64 63 62 63 63 66 69 67 63 64 60 50 51 60 67 74 80 82 82 80 76 72 69 68 67 68 69 69 70 70 69 68 69 71 69 67 65 64 66 71 76 87 163 202 211 225 231 225 218 216 221 222 217 217 228 257 277 280 277 274 270
233 235 239 243 246 245 242 244 250 248 237 233 236 229 218 221 223 199 166 177 184 179 158 123 103 90 85 84 73 68 70 68 63 61 60 58 61 66 71 80 86 86 86 87 87 83 78 73 69 65 62 59 58 58 55 48 44 43 41 35 29 23 19 23 33 42 62 99 121 185 232 213 179 160 170 191 211 246 263 263 267 275 276 272 267
Height
800 802 803 805 807 809 812 814 816 818 819 822 823 825 827 829 831 832 833 835 836 837 838 839 840 841 842 843 843 844 845 846 847 848 849 850 850 851 851 852 852 852 853 853 853 853 853 853 853 854 855 856 857 858 859 860 861 861 861 861 862 863 863 863 866 870 873 874 875 876 878 879 880 881 882 883 884 885 885 886 886 887 889 889 888
798 801 802 805 806 808 810 812 815 817 819 821 823 825 827 828 831 832 834 835 836 838 838 839 840 841 841 843 843 844 845 846 847 848 849 850 850 851 851 852 852 853 853 853 853 853 853 854 854 855 856 856 857 858 859 860 860 861 862 862 863 864 863 863 866 869 872 874 875 876 877 878 879 880 881 882 883 884 885 886 886 887 889 889 889
799 801 803 805 806 808 810 811 814 817 819 821 823 825 826 828 830 832 834 835 836 838 838 839 840 840 841 842 843 844 845 846 847 848 849 850 850 851 851 852 853 853 853 853 854 854 854 855 855 856 857 857 858 859 859 860 860 860 862 863 864 864 864 864 865 868 870 873 874 875 877 878 878 879 881 882 883 884 884 885 886 887 888 888 888
800 802 804 806 807 809 811 812 815 817 819 822 823 825 826 828 830 832 834 835 836 837 838 839 840 840 841 842 843 844 845 846 847 848 849 850 850 851 852 852 853 853 854 854 854 855 855 855 856 856 857 858 858 859 860 860 861 861 862 863 864 865 866 866 866 867 868 871 872 873 875 877 878 878 880 881 882 883 883 884 885 886 886 887 888
801 802 804 807 808 810 812 815 817 819 821 823 824 826 827 828 830 832 833 835 836 837 838 839 840 841 841 842 843 844 844 845 847 848 849 850 850 851 852 852 853 853 854 854 854 855 855 856 857 857 858 858 859 860 860 861 862 862 862 863 863 864 865 866 866 866 867 869 870 872 873 875 876 877 878 879 880 881 882 882 883 884 885 886 886
801 803 805 807 809 811 813 816 819 820 822 824 825 826 827 829 830 831 833 834 836 837 838 839 840 841 842 842 843 844 844 845 846 847 848 849 850 851 852 852 853 853 854 854 855 855 856 856 857 857 858 858 859 859 860 861 861 861 862 862 862 863 864 865 865 865 866 867 868 869 871 872 873 874 876 876 878 879 879 880 882 882 883 885 885
800 803 804 806 808 810 813 816 818 820 821 823 826 827 828 829 830 831 833 834 835 837 838 839 840 841 842 842 843 844 844 845 846 847 848 849 850 850 851 852 853 853 854 854 855 855 856 857 857 858 858 858 859 860 860 861 861 861 861 862 861 862 863 864 864 864 864 865 866 867 868 870 871 872 873 874 876 876 877 878 880 880 881 882 883
800 803 804 806 808 810 813 815 817 818 820 822 824 826 828 829 830 831 833 834 835 836 837 838 840 841 841 842 843 844 845 846 846 847 848 849 849 850 851 852 852 853 854 855 855 856 856 857 857 858 858 859 859 859 860 860 860 861 861 861 862 862 862 862 862 862 863 863 864 865 866 868 869 870 871 872 873 873 874 875 877 878 879 880 880
802 804 805 807 808 810 812 814 815 818 820 821 823 825 828 829 830 831 832 834 835 836 837 838 839 841 841 842 843 844 845 846 846 847 848 849 849 850 850 851 852 853 854 855 855 856 856 857 857 858 858 859 859 859 860 860 860 860 860 861 862 862 861 861 861 861 861 862 862 862 863 865 866 867 868 869 870 871 872 873 873 875 877 878 879
804 805 805 807 808 810 811 813 814 816 818 821 822 824 827 829 830 831 832 833 835 836 837 838 839 840 842 842 843 844 845 846 846 847 847 848 849 850 850 851 852 852 853 854 855 855 856 856 857 857 858 858 859 859 859 860 860 860 860 861 861 861 860 860 860 859 859 860 860 860 861 862 863 864 866 867 868 869 870 871 872 873 875 877 877
805 806 806 807 808 809 811 812 813 815 817 820 823 825 826 827 829 830 831 833 834 835 837 838 839 840 841 842 843 844 845 846 846 847 847 848 849 850 850 851 851 852 852 853 854 854 855 856 856 857 857 858 858 858 858 859 859 859 859 860 860 860 859 859 859 859 858 858 858 858 859 859 861 862 864 865 866 867 868 869 870 871 873 873 873
806 808 808 809 810 810 812 813 815 816 817 819 823 825 825 827 829 830 831 833 834 835 837 838 839 840 841 842 843 844 845 845 846 847 848 848 849 849 850 850 850 851 851 852 852 853 854 854 855 856 856 857 857 857 857 857 858 858 858 858 858 858 858 858 858 858 858 857 856 856 857 858 858 860 861 863 864 865 866 867 868 869 870 869 870
807 808 810 811 812 812 813 815 816 818 819 820 822 824 825 828 830 830 831 833 834 835 837 838 839 840 841 842 843 844 845 845 846 846 847 848 848 849 849 849 849 849 850 851 851 851 852 853 853 854 855 855 856 856 856 856 856 856 856 856 857 856 856 856 856 857 857 856 855 855 856 857 857 858 860 861 862 863 864 865 866 867 868 868 868
809 810 811 812 813 813 814 815 817 819 820 821 822 824 825 827 829 831 832 833 833 835 837 838 839 840 840 841 843 843 844 844 845 845 845 846 847 847 848 848 848 849 849 849 850 850 851 851 852 853 853 853 854 855 855 855 855 855 855 855 855 854 854 855 855 855 855 855 855 855 855 856 856 857 858 859 860 861 863 864 865 866 867 867 868
812 813 813 814 814 816 816 817 818 819 821 822 823 825 826 827 829 830 831 832 833 835 837 837 838 839 839 840 842 842 842 843 843 844 844 844 845 845 846 846 847 847 847 848 848 849 850 850 851 851 851 852 852 853 853 854 853 853 853 853 853 853 853 852 853 853 853 854 854 854 854 855 856 856 857 858 859 860 861 862 864 865 866 866 867
815 815 816 816 816 817 818 818 819 820 821 823 824 825 827 828 828 830 831 832 834 835 836 836 837 838 839 840 841 841 841 841 842 842 842 843 843 844 845 845 845 845 846 846 846 847 848 848 849 849 850 850 850 851 851 852 851 851 851 851 851 851 850 850 851 851 852 852 852 852 852 853 854 855 857 858 858 859 860 861 862 864 865 866 866
818 818 818 819 819 819 819 820 821 822 823 824 825 826 828 829 829 830 831 833 834 835 836 836 837 838 839 840 840 840 840 841 841 841 841 842 842 843 844 844 844 844 844 844 844 845 846 846 847 848 848 848 848 848 849 849 849 849 848 848 849 850 848 848 849 850 850 850 850 850 850 851 852 853 855 855 856 858 860 860 861 863 864 863 863
822 821 821 822 821 821 821 822 823 823 824 825 826 828 828 829 830 830 832 833 834 835 835 836 838 839 839 840 840 840 840 840 840 840 841 841 841 842 843 843 842 842 842 842 843 843 843 844 844 845 846 846 846 846 846 846 846 846 846 846 847 848 847 846 847 848 848 848 848 848 849 849 850 851 852 853 854 856 858 858 859 861 861 861 861
826 825 825 825 825 824 824 824 825 825 826 827 828 828 829 829 830 831 832 833 834 835 836 837 839 839 839 839 840 841 841 841 840 840 840 840 840 841 842 842 841 841 841 841 841 841 842 842 842 843 844 844 843 843 843 844 844 844 844 844 844 845 845 845 846 846 847 847 847 847 848 848 849 850 850 851 853 855 856 857 858 859 859 859 860
830 830 830 829 828 828 828 828 828 828 828 829 829 830 830 830 830 831 832 833 834 836 837 838 839 839 839 840 840 841 842 842 841 840 839 839 839 840 841 841 840 840 840 840 840 840 840 840 840 841 842 841 841 841 841 841 842 842 842 842 843 843 843 843 844 845 846 846 847 847 848 848 848 849 850 851 853 855 856 857 858 858 858 859 860
832 832 832 832 832 831 831 831 831 831 831 832 832 832 832 832 832 833 833 833 834 835 837 838 838 839 839 840 840 840 841 841 841 840 839 839 839 839 840 840 840 840 840 840 840 839 839 839 839 839 840 840 839 839 839 840 840 841 841 842 842 842 843 843 843 845 846 847 847 847 848 849 849 850 850 851 853 854 855 856 856 857 858 858 859
834 833 833 833 833 833 833 833 833 833 833 834 834 834 834 834 834 834 835 835 835 836 837 838 838 839 839 840 840 839 839 840 841 840 840 839 838 839 839 839 839 840 840 840 840 840 839 839 838 838 838 838 837 837 838 838 839 839 840 840 841 842 842 843 843 844 846 846 847 847 848 848 849 849 850 851 853 854 854 855 855 856 857 858 859
836 835 835 835 834 834 834 834 834 834 834 834 834 835 835 835 835 836 836 836 836 837 837 838 838 839 840 840 841 840 840 841 841 841 840 839 839 838 838 838 838 839 839 840 839 839 839 839 837 837 836 836 836 836 836 836 837 837 838 839 840 841 842 842 843 843 844 845 845 846 846 847 847 848 849 851 852 853 854 854 855 855 856 857 858
839 838 837 837 836 835 835 835 835 835 835 835 835 835 835 836 836 836 836 837 837 838 838 839 839 839 840 841 841 842 842 842 842 841 840 839 838 838 837 837 837 837 838 838 838 838 838 837 836 835 835 835 834 834 834 834 834 834 835 837 838 839 840 841 841 842 843 843 844 845 845 846 847 847 848 850 851 852 853 854 855 856 856 856 857
841 841 840 839 838 838 837 836 836 837 837 837 836 836 836 836 837 837 837 837 838 838 839 839 839 840 840 841 841 842 842 842 842 841 840 839 839 838 837 837 837 836 837 837 836 836 835 835 834 834 833 833 833 833 832 832 832 832 833 834 835 837 839 840 839 839 840 842 844 846 846 847 848 848 848 848 850 851 853 854 855 855 856 856 856
843 842 841 840 840 840 839 839 838 839 839 839 839 839 838 838 839 839 839 839 839 839 840 840 840 840 841 841 841 841 841 842 842 841 840 839 839 838 838 837 836 836 835 835 834 833 833 833 832 832 831 831 831 831 831 831 831 831 831 831 832 833 836 838 839 840 840 841 843 846 848 848 849 850 851 851 851 852 853 854 855 856 856 856 857
844 843 842 842 842 841 841 841 841 841 841 841 841 841 841 841 841 841 841 841 841 841 841 841 841 842 842 842 842 842 841 842 841 840 839 839 838 838 837 836 835 835 834 834 833 832 832 831 831 830 830 830 830 830 830 830 830 830 829 829 829 830 831 833 835 839 841 842 843 846 848 848 850 852 854 855 854 853 854 855 856 857 857 858 858
845 844 844 843 843 843 843 843 843 843 843 843 843 843 843 843 843 843 843 843 843 843 843 843 843 843 843 843 843 842 842 842 841 840 839 838 837 837 836 835 835 834 834 833 833 832 831 830 830 829 829 829 829 829 829 829 829 829 829 829 828 828 828 830 831 835 838 839 841 844 846 848 850 853 855 856 855 855 855 855 857 857 858 859 859
847 846 845 845 845 845 845 844 844 845 845 845 845 844 844 844 845 845 845 844 844 844 844 844 844 844 844 844 843 843 842 842 841 840 839 838 837 836 835 835 834 833 833 832 831 831 830 830 829 829 828 828 828 827 827 827 827 828 828 828 828 828 828 829 830 832 833 835 838 840 842 845 847 849 852 854 855 855 855 855 856 857 858 859 859
848 847 847 847 847 846 846 846 846 846 846 847 846 846 846 846 846 846 846 846 845 845 845 845 845 844 844 845 844 843 843 842 841 840 839 838 838 836 835 834 833 832 832 831 830 830 830 829 828 828 827 827 826 826 826 825 825 826 826 827 827 827 828 829 829 830 831 833 835 838 840 843 844 846 848 851 853 854 854 855 855 856 857 858 858
849 848 848 849 848 848 848 848 848 848 847 847 847 847 848 847 847 847 847 847 846 846 845 845 845 844 844 844 843 843 842 841 840 839 838 837 836 835 834 833 832 831 830 830 829 829 828 827 827 826 826 826 826 826 826 825 825 825 825 825 826 827 828 829 829 830 831 833 835 837 839 842 843 844 847 849 851 853 854 854 855 856 856 857 857
850 850 850 850 850 850 849 849 849 849 849 849 848 848 848 848 848 848 848 848 847 847 846 846 845 844 843 843 842 841 840 839 839 838 837 836 835 834 833 832 831 830 829 828 828 828 827 826 825 825 825 825 825 825 825 825 825 825 825 825 826 826 826 827 828 830 831 833 834 836 839 840 842 844 847 849 851 852 853 854 855 855 855 856 856
852 852 851 851 851 851 851 851 851 851 850 850 850 850 849 849 849 850 849 849 848 848 847 847 846 845 844 843 842 841 840 839 838 837 836 835 834 833 832 831 830 830 829 828 828 827 826 825 825 824 824 824 824 824 824 824 824 825 825 825 825 825 825 825 827 829 831 832 833 836 838 840 842 845 847 849 851 853 854 854 854 855 855 855 855
854 853 853 853 853 852 852 852 852 852 852 852 851 851 851 851 851 851 851 850 850 849 849 848 847 847 845 844 843 842 840 839 839 838 837 836 834 833 832 831 830 830 829 829 828 827 826 826 825 825 824 824 825 825 825 824 824 824 824 824 825 825 825 825 827 829 831 832 834 836 838 840 843 845 847 849 851 852 853 854 854 854 854 854 854
855 855 854 854 854 854 854 854 853 853 853 853 853 853 853 853 853 852 852 852 851 851 850 849 849 848 846 845 844 842 841 840 839 838 837 836 835 834 833 832 831 830 830 829 828 828 828 827 826 826 825 824 825 825 825 824 824 823 823 824 824 825 825 826 827 829 831 833 835 837 839 841 844 846 848 849 850 852 852 852 853 853 853 853 853
856 856 856 856 855 855 855 855 855 855 855 855 855 855 854 854 854 854 853 853 853 852 851 850 849 849 847 846 845 843 842 841 840 839 838 837 836 835 834 833 831 831 831 830 830 829 829 829 828 827 826 825 825 825 824 824 824 823 823 824 824 824 825 826 828 829 831 834 836 839 841 842 844 846 848 849 850 851 851 851 851 852 852 852 852
857 857 857 857 857 857 857 856 856 855 856 856 856 856 856 855 855 854 854 854 853 853 852 851 850 849 848 847 846 844 843 842 841 840 839 838 836 835 835 834 833 832 832 831 831 831 831 829 829 828 827 826 825 825 824 824 824 823 823 823 823 824 825 826 828 831 833 835 837 839 841 843 845 847 848 849 850 850 850 850 850 851 851 852 852
858 859 859 858 858 858 858 858 857 857 857 857 857 857 857 856 855 855 854 854 854 853 852 851 851 850 849 848 846 844 844 843 842 841 840 839 838 837 836 835 834 833 833 832 832 832 831 830 830 828 827 826 826 825 824 824 824 823 822 822 823 824 825 827 830 832 834 836 838 840 843 844 846 847 848 849 849 849 849 849 849 850 851 851 850
860 861 860 860 860 860 860 860 859 859 859 859 858 858 857 857 856 856 855 855 855 854 853 852 852 851 851 849 847 845 845 844 843 842 841 840 839 838 837 837 836 835 834 834 833 832 832 831 830 829 828 827 826 825 824 824 824 823 823 822 823 824 826 828 830 832 835 837 839 842 844 845 846 847 848 848 848 848 849 849 849 849 849 848 848
862 862 862 861 861 861 861 861 860 860 860 860 859 859 858 858 858 857 857 857 856 856 855 854 853 853 852 850 848 847 847 846 845 844 843 842 841 840 839 838 837 836 835 835 834 833 832 831 830 829 828 827 827 825 824 824 823 823 823 823 824 825 827 828 830 833 835 837 840 842 843 844 845 846 847 847 847 848 848 848 848 848 848 848 847
862 862 863 863 862 862 862 862 862 861 861 861 860 860 860 860 859 859 859 859 858 857 856 855 855 855 854 852 850 849 848 847 846 845 844 843 843 841 840 839 838 837 836 835 834 834 832 831 830 829 828 827 827 826 825 825 824 824 824 825 825 826 828 830 832 834 836 838 841 842 843 844 845 846 847 847 847 847 847 847 847 848 848 848 847
862 863 863 863 862 862 863 863 863 862 862 862 862 862 861 861 861 861 860 860 859 859 858 857 856 856 855 853 851 850 849 848 848 847 846 845 844 843 842 841 840 839 837 836 835 835 833 832 831 830 829 828 827 827 826 826 826 826 826 826 826 827 829 831 833 835 837 839 841 843 843 844 845 846 847 847 847 847 847 847 847 847 847 847 847
862 862 862 862 862 863 863 863 863 863 863 863 863 863 862 862 862 862 862 861 861 860 859 858 858 857 857 855 853 851 850 850 849 848 848 847 846 845 844 843 841 841 840 838 837 836 835 834 833 832 832 830 829 828 827 827 827 828 828 828 828 829 830 832 834 836 838 840 841 843 844 844 845 846 847 847 847 847 847 847 847 847 846 846 847
862 862 862 862 862 863 863 864 864 864 864 864 864 864 863 862 862 862 862 862 862 861 860 860 859 858 858 856 855 853 852 852 851 850 849 848 847 846 845 844 843 843 842 841 839 838 837 837 836 835 835 834 833 831 830 830 830 830 830 830 831 831 832 834 836 838 839 841 842 843 844 845 846 847 847 847 848 848 848 848 848 847 846 846 846
861 861 862 862 862 862 863 863 864 864 864 864 864 864 863 863 863 863 863 863 862 862 861 861 860 860 859 858 857 855 854 853 852 851 850 849 848 848 847 846 845 844 844 843 842 840 840 839 839 838 837 837 836 835 834 834 833 833 833 834 834 835 836 837 838 839 841 842 843 844 845 845 846 847 847 848 848 848 847 847 847 847 847 846 846
861 861 861 862 862 862 862 863 863 864 864 863 863 863 863 863 864 864 864 864 863 863 862 862 861 861 860 860 859 857 856 855 854 853 852 851 850 849 849 848 848 847 846 845 844 843 843 842 841 841 840 839 839 838 838 838 837 837 837 838 838 838 839 840 841 841 842 843 844 845 846 846 847 847 847 847 848 847 847 846 847 847 847 847 847
860 860 861 861 861 861 861 862 862 862 863 863 863 863 863 863 863 863 864 864 863 863 862 862 862 861 861 861 860 859 858 857 857 856 855 854 853 852 851 850 850 849 849 848 847 846 846 845 844 844 843 842 842 841 841 841 841 841 841 841 841 841 842 842 843 843 844 844 845 846 846 847 847 847 847 847 847 847 847 847 847 848 847 847 846
860 860 860 860 860 860 861 861 861 861 862 862 863 863 863 863 863 863 863 863 862 862 863 862 862 862 862 861 861 860 860 859 858 858 857 857 856 855 854 853 852 852 851 851 850 849 849 848 847 847 846 845 845 844 844 844 844 843 843 843 843 843 843 843 844 844 844 845 845 846 846 846 847 847 846 847 847 847 847 847 847 847 847 846 846
859 859 859 859 859 859 860 860 860 860 861 861 862 862 863 863 863 862 862 862 862 862 862 862 862 862 862 862 861 861 861 860 860 859 859 859 858 857 856 855 854 854 853 853 852 852 851 850 850 849 848 848 848 847 847 846 846 845 845 845 845 845 844 844 844 844 844 845 845 845 845 846 846 846 846 846 846 846 847 847 847 846 846 846 846
858 858 858 858 858 858 858 859 859 859 860 860 860 861 861 862 862 862 862 862 862 862 862 862 862 862 862 862 861 861 861 861 860 860 860 860 859 858 858 857 856 856 855 854 854 853 853 852 852 851 851 850 849 849 849 848 848 847 847 846 846 846 845 845 845 844 844 844 844 845 845 845 845 845 846 846 846 846 847 847 847 847 846 846 846
858 858 857 858 858 858 857 858 858 858 858 858 858 859 860 861 861 861 861 861 861 861 861 861 862 862 862 862 862 861 861 861 861 860 860 860 860 859 859 858 857 857 856 856 855 855 854 854 853 853 853 852 851 851 850 850 849 848 848 847 847 846 846 845 845 845 844 844 845 845 845 845 845 845 846 846 846 847 846 846 847 847 846 846 845